Location: Barcelona
(41.3830°N, 2.1830°E)
Time: 15:52:40
(UTC+02:00)

ISS - Pass Details

Date: 27 March 2020
Orbit: 416 x 423 km, 51.6° (Epoch: 02 April)

Event Time Altitude Azimuth Distance (km) Brightness Sun altitude
Rises 20:39:55 0° 301° (WNW) 2,359 1.7 -17.0°
Reaches altitude 10° 20:42:46 10° 328° (NNW) 1,496 -0.2 -17.5°
Maximum altitude 20:44:41 14° 2° (N) 1,262 -1.1 -17.8°
Enters shadow 20:46:15 11° 32° (NNE) 1,423 -1.2 -18.1°
